SCP
0 0 0 0 0 0 0 0 0 0 0 0 0 0 0 0 0 0 0 0 0 0 0 0 0 0 0 0 0 0 0 0 0 0 0 0 0 0 0 0 0 0 0
0 0 0 0 0 0 0 0 0 0 0 0 0 0 0 0 0 0 0 0 0 0 0 0 0 0 0 0 0 0 0 0 0 0 0 0 0 0 0 0 0 0 0
0 0 0 0 0 0 0 0 0 0 0 0 0 0 0 0 0 0 0 0 0 0 0 0 0 0 0 0 0 0 0 0 0 0 0 0 0 0 0 0 0 0 0
0 0 0 0 0 0 0 0 0 0 0 0 0 0 0 0 0 0 0 0 0 0 0 0 0 0 0 0 0 0 0 0 0 0 0 0 0 0 0 0 0 0 0
0 0 0 0 0 0 0 0 0 0 0 0 0 0 0 0 0 0 0 0 0 0 0 0 0 0 0 0 0 0 0 0 0 0 0 0 0 0 0 0 0 0 0
0 0 0 0 0 0 0 0 0 0 0 0 0 0 0 0 0 0 0 0 0 0 0 0 0 0 0 0 0 0 0 0 0 0 0 0 0 0 0 0 0 0 0
0 0 0 0 0 0 0 0 0 0 0 0 0 0 0 0 0 0 0 0 0 0 0 0 0 0 0 0 0 0 0 0 0 0 0 0 0 0 0 0 0 0 0
0 0 0 0 0 0 0 0 0 0 0 0 0 0 0 0 0 0 0 0 0 0 0 0 0 0 0 0 0 0 0 0 0 0 0 0 0 0 0 0 0 0 0
0 0 0 0 0 0 0 0 0 0 0 0 0 0 0 0 0 0 0 0 0 0 0 0 0 0 0 0 0 0 0 0 0 0 0 0 0 0 0 0 0 0 0
0 0 0 0 0 0 0 0 0 0 0 0 0 0 0 0 0 0 0 0 0 0 0 0 0 0 0 0 0 0 0 0 0 0 0 0 0 0 0 0 0 0 0
0 0 0 0 0 0 0 0 0 0 0 0 0 0 0 0 0 0 0 0 0 0 0 0 0 0 0 0 0 0 0 0 0 0 0 0 0 0 0 0 0 0 0
0 0 0 0 0 0 0 0 0 0 0 0 0 0 0 0 0 0 0 0 0 0 0 0 0 0 0 0 0 0 0 0 0 0 0 0 0 0 0 0 0 0 0
0 0 0 0 0 0 0 0 0 0 0 0 0 0 0 0 0 0 0 0 0 0 0 0 0 0 0 0 0 0 0 0 0 0 0 0 0 0 0 0 0 0 0
0 0 0 0 0 0 0 0 0 0 0 0 0 0 0 0 0 0 0 0 0 0 0 0 0 0 0 0 0 0 0 0 0 0 0 0 0 0 0 0 0 0 0
0 0 0 0 0 0 0 0 0 0 0 0 0 0 0 0 0 0 0 0 0 0 0 0 0 0 0 0 0 0 0 0 0 0 0 0 0 0 0 0 0 0 0
0 0 0 0 0 0 0 0 0 0 0 0 0 0 0 0 0 0 0 0 0 0 0 0 0 0 0 0 0 0 0 0 0 0 0 0 0 0 0 0 0 0 0
0 0 0 0 0 0 0 0 0 0 0 0 0 0 0 0 0 0 0 0 0 0 0 0 0 0 0 0 0 0 0 0 0 0 0 0 0 0 0 0 0 0 0
0 0 0 0 0 0 0 0 0 0 0 0 0 0 0 0 0 0 0 0 0 0 0 0 0 0 0 0 0 0 0 0 0 0 0 0 0 0 0 0 0 0 0
0 0 0 0 0 0 0 0 0 0 0 0 0 0 0 0 0 0 0 0 0 0 0 0 0 0 0 0 0 0 0 0 0 0 0 0 0 0 0 0 0 0 0
0 0 0 0 0 0 0 0 0 0 0 0 0 0 0 0 0 0 0 0 0 0 0 0 0 0 0 0 0 0 0 0 0 0 0 0 0 0 0 0 0 0 0
0 0 0 0 0 0 0 0 0 0 0 0 0 0 0 0 0 0 0 0 0 0 0 0 0 0 0 0 0 0 0 0 0 0 0 0 0 0 0 0 0 0 0
0 0 0 0 0 0 0 0 0 0 0 0 0 0 0 0 0 0 0 0 0 0 0 0 0 0 0 0 0 0 0 0 0 0 0 0 0 0 0 0 0 0 0
0 0 0 0 0 0 0 0 0 0 0 0 0 0 0 0 0 0 0 0 0 0 0 0 0 0 0 0 0 0 0 0 0 0 0 0 0 0 0 0 0 0 0
0 0 0 0 0 0 0 0 0 0 0 0 0 0 0 0 0 0 0 0 0 0 0 0 0 0 0 0 0 0 0 0 0 0 0 0 0 0 0 0 0 0 0
0 0 0 0 0 0 0 0 0 0 0 0 0 0 0 0 0 0 0 0 0 0 0 0 0 0 0 0 0 0 0 0 0 0 0 0 0 0 0 0 0 0 0
0 0 0 0 0 0 0 0 0 0 0 0 0 0 0 0 0 0 0 0 0 0 0 0 0 0 0 0 0 0 0 0 0 0 0 0 0 0 0 0 0 0 0
Wind_Speed_500mb
24 23 21 17 16 18 13 13 12 10 10 9 8 8 7 7 9 12 9 26 23 17 19 18 15 14 13 16 22 24 21 20 20 20 20 21 21 22 23 24 26 27 24
26 25 24 21 19 18 16 13 12 13 9 9 7 9 6 6 7 10 4 9 16 17 15 15 14 14 16 19 22 25 26 26 24 24 25 26 25 25 25 25 25 25 24
29 27 26 24 22 20 16 15 14 11 9 8 5 6 8 7 6 6 7 2 5 9 11 14 16 18 18 20 23 25 27 28 28 28 28 29 30 30 30 31 30 29 28
31 28 26 24 22 21 18 16 14 12 10 10 7 5 4 4 7 7 4 3 7 11 13 15 17 18 18 19 21 23 25 27 28 28 28 29 30 32 32 32 34 36 35
32 28 26 24 23 22 21 18 17 13 10 8 7 6 7 5 4 4 6 7 8 9 12 12 15 17 19 21 23 25 25 27 29 31 32 32 32 33 34 34 33 34 35
35 31 27 25 23 21 19 17 15 14 13 9 7 6 6 7 7 4 6 6 8 9 11 15 18 21 22 25 29 30 31 34 36 37 37 38 39 38 38 37 36 35 35
34 31 29 28 26 24 21 18 16 14 11 10 11 5 4 3 4 5 5 4 10 11 11 14 19 24 28 33 32 31 34 36 37 38 39 40 40 41 41 38 38 39 40
34 31 30 28 25 22 20 18 16 13 12 11 15 10 7 2 3 2 1 1 4 10 18 20 24 25 26 28 30 32 31 33 34 35 37 37 38 38 39 40 42 42 42
35 33 31 28 25 22 20 18 16 14 12 11 12 13 5 4 5 1 3 2 11 12 17 20 24 25 28 29 30 36 38 37 35 37 39 41 41 40 39 40 42 45 46
36 34 30 27 24 22 20 18 16 14 14 13 11 11 10 9 4 5 9 7 14 13 17 19 21 24 27 28 36 35 34 39 45 50 54 54 51 47 45 45 46 47 50
37 34 29 26 24 22 19 17 16 15 15 13 12 11 15 13 10 8 3 7 17 14 21 28 21 21 22 28 31 36 43 48 52 54 54 54 50 46 45 46 48 49 51
40 34 30 26 24 22 21 20 19 16 17 17 14 16 15 9 9 9 7 16 21 18 28 24 21 20 31 27 31 48 54 57 57 56 57 58 58 59 59 58 55 53 53
41 35 31 28 26 24 23 21 20 20 20 20 13 17 12 10 11 13 15 17 27 35 22 17 22 33 34 38 48 61 62 65 65 65 59 59 60 63 65 66 63 59 56
40 37 34 29 26 25 23 24 25 24 22 17 12 12 9 12 15 17 19 24 31 25 33 26 35 28 28 54 64 63 68 63 62 69 69 66 62 59 60 64 66 60 57
42 38 33 30 27 25 27 27 27 24 19 13 9 10 12 15 18 22 24 25 23 18 36 37 32 50 59 63 65 70 70 68 70 58 54 53 53 56 58 58 56 56 57
40 38 34 30 29 29 29 28 24 19 14 11 8 13 15 19 23 25 25 27 26 27 28 44 51 55 58 64 65 65 72 71 61 49 54 52 58 60 59 57 58 59 59
40 37 35 32 32 32 28 25 19 13 10 9 13 13 19 21 24 26 29 31 33 34 41 52 50 53 56 54 57 65 56 58 56 55 54 58 61 59 57 58 58 57 56
40 36 35 34 36 31 26 19 13 9 8 12 13 18 22 25 27 30 34 35 36 37 41 50 52 48 56 60 51 52 51 48 49 53 53 56 56 57 57 58 55 54 57
41 39 38 37 33 28 21 13 8 7 11 12 17 22 24 28 30 34 36 37 38 40 42 42 55 58 56 50 52 49 48 50 58 59 49 53 51 52 59 56 58 60 59
40 42 38 34 30 22 15 9 8 10 13 16 20 24 29 32 36 38 40 40 38 40 40 44 54 58 51 55 48 53 56 67 67 65 68 67 54 58 60 56 52 52 52
40 42 37 31 23 15 10 7 9 13 15 20 25 30 34 37 39 42 43 41 40 39 37 40 48 54 53 51 51 55 60 69 72 71 76 56 63 67 66 59 49 46 50
43 38 30 22 15 10 8 9 11 14 19 23 27 31 35 39 43 44 42 38 35 39 40 42 50 53 52 54 56 59 68 77 77 67 56 70 63 69 62 64 51 51 52
39 31 23 16 11 7 7 9 14 18 23 28 31 33 37 39 42 39 35 30 29 29 35 43 52 53 62 59 64 78 73 68 71 68 61 66 65 66 62 58 54 51 44
34 25 18 12 6 6 8 13 17 22 26 29 34 38 39 37 34 38 38 34 37 39 37 46 60 60 60 61 64 67 61 60 61 59 49 63 63 61 60 57 42 36 38
30 22 15 8 4 6 11 17 23 25 28 32 37 38 38 36 34 41 37 38 43 43 43 49 50 54 53 53 48 49 54 58 67 67 59 53 63 74 65 57 41 34 57
22 18 11 6 5 10 16 20 24 29 33 35 37 35 31 35 42 41 37 42 48 51 53 56 54 48 44 42 35 41 53 59 63 69 56 61 64 64 66 45 49 70 61
Wind_Direction_500mb
191 179 176 170 172 162 160 157 145 144 137 145 127 129 125 122 139 148 223 211 230 248 272 285 300 309 308 309 320 329 331 329 327 325 323 322 319 314 309 305 301 300 300
191 181 180 177 174 163 160 151 152 157 157 137 156 150 151 137 142 148 177 209 240 256 271 287 300 304 305 308 314 320 324 326 325 322 320 319 317 314 311 307 304 301 295
188 187 181 177 177 167 160 169 166 160 168 163 165 159 141 132 116 123 155 199 251 264 286 298 304 308 311 313 316 319 321 323 323 322 320 317 316 314 311 308 304 301 297
186 184 183 181 179 173 165 161 159 161 155 151 140 170 136 139 156 161 170 206 257 289 300 306 311 316 322 326 326 326 325 326 325 324 321 318 316 314 311 307 305 303 299
180 181 182 178 176 173 171 171 167 163 167 172 165 176 167 171 194 196 231 255 285 299 313 329 326 325 325 324 322 319 316 315 314 314 314 313 312 311 310 308 303 299 298
178 178 176 173 171 171 171 166 163 166 168 172 163 168 182 182 204 187 250 283 294 315 313 319 325 327 324 323 321 318 313 311 309 307 306 306 305 306 305 304 302 301 299
178 173 171 169 169 168 166 164 161 160 154 155 132 128 122 132 189 228 249 255 304 318 323 333 330 324 321 322 317 317 313 310 308 306 305 304 302 301 301 301 300 300 297
174 169 168 166 164 161 160 159 158 149 139 157 161 174 137 84 332 227 231 286 338 350 337 334 328 327 327 324 322 319 319 314 310 306 305 306 307 307 304 300 299 297 295
170 165 162 162 161 158 157 153 151 149 141 131 155 158 165 151 192 333 352 47 342 352 317 329 335 329 325 322 318 315 313 310 307 304 302 302 302 305 303 300 297 293 290
166 162 160 158 158 154 152 148 145 144 138 129 119 128 146 157 156 171 347 1 343 333 325 320 323 323 320 319 315 310 311 308 307 307 307 306 304 304 303 297 292 290 289
163 160 157 156 154 149 148 145 138 137 129 128 125 119 103 103 83 113 113 267 315 292 314 320 316 318 308 318 314 309 310 313 310 309 308 307 307 309 306 299 293 287 284
160 159 156 154 150 147 144 136 131 129 120 114 113 102 88 89 49 42 346 304 316 316 316 325 323 308 316 316 312 315 318 316 314 312 310 308 307 303 300 298 297 295 291
160 158 153 151 146 142 138 133 129 123 118 111 107 88 74 44 13 357 340 320 315 325 326 331 313 315 317 314 311 313 318 319 317 313 311 304 300 297 296 296 295 294 293
158 154 150 148 143 142 139 132 126 122 114 107 91 63 37 9 349 339 333 327 327 321 319 309 318 320 302 304 311 311 314 316 311 314 313 312 307 298 291 289 290 295 295
156 151 148 146 144 142 138 131 127 119 110 98 62 33 358 348 336 335 337 333 324 312 311 319 317 307 309 312 313 315 314 315 314 317 315 313 312 313 311 307 304 300 296
155 150 145 144 145 140 136 129 122 120 105 68 16 2 346 346 339 336 333 329 320 303 285 304 311 309 310 309 312 310 313 314 319 319 317 315 314 313 310 306 304 300 300
149 146 143 144 144 137 135 131 122 105 72 31 358 345 352 345 336 329 329 328 321 312 301 308 309 308 310 313 306 312 324 331 328 321 317 313 314 315 312 308 306 304 300
144 144 141 147 145 138 135 125 118 76 38 3 354 350 346 341 335 330 329 326 320 318 308 306 313 314 307 316 331 329 319 318 312 309 311 313 312 311 309 309 307 303 301
147 145 143 147 141 140 133 123 91 44 17 357 349 347 341 336 331 328 327 323 319 312 313 306 306 318 331 334 320 318 317 305 304 315 313 314 309 310 309 309 304 303 299
148 145 145 145 146 134 123 100 54 16 2 351 348 342 337 333 329 326 326 323 318 315 311 316 319 324 321 323 318 315 314 312 321 319 314 315 306 309 310 312 310 306 305
145 146 149 147 135 127 106 70 26 10 355 346 343 341 334 333 328 328 327 323 317 314 315 317 313 313 317 319 318 316 312 314 312 313 316 315 306 311 310 312 311 310 306
143 143 148 140 128 122 78 30 12 353 347 344 342 340 335 333 330 324 321 319 329 326 319 314 309 309 311 312 316 316 311 315 314 317 311 311 312 309 312 314 312 307 306
143 145 141 136 123 82 44 15 359 351 344 341 342 339 336 327 322 319 321 321 315 304 304 304 303 304 307 312 308 309 314 312 310 315 319 311 315 313 315 314 311 307 310
144 143 139 128 97 47 16 1 352 347 344 342 339 335 327 321 317 316 320 317 303 314 307 298 299 307 311 311 307 307 310 313 314 320 323 313 321 321 324 326 330 319 310
147 141 136 119 70 19 3 354 346 344 345 341 334 326 323 325 321 324 320 315 314 308 302 301 302 302 302 302 305 313 313 313 312 314 318 316 315 319 322 325 323 313 321
142 138 129 106 30 358 351 347 346 344 339 331 325 324 320 318 317 319 315 310 306 311 307 310 310 310 305 311 313 304 306 308 307 309 316 315 314 319 319 316 304 320 328
Wind_Speed_850mb
24 23 21 17 16 18 13 13 12 10 10 9 8 8 7 7 9 12 9 26 23 17 19 18 15 14 13 16 22 24 21 20 20 20 20 21 21 22 23 24 26 27 24
26 25 24 21 19 18 16 13 12 13 9 9 7 9 6 6 7 10 4 9 16 17 15 15 14 14 16 19 22 25 26 26 24 24 25 26 25 25 25 25 25 25 24
29 27 26 24 22 20 16 15 14 11 9 8 5 6 8 7 6 6 7 2 5 9 11 14 16 18 18 20 23 25 27 28 28 28 28 29 30 30 30 31 30 29 28
31 28 26 24 22 21 18 16 14 12 10 10 7 5 4 4 7 7 4 3 7 11 13 15 17 18 18 19 21 23 25 27 28 28 28 29 30 32 32 32 34 36 35
32 28 26 24 23 22 21 18 17 13 10 8 7 6 7 5 4 4 6 7 8 9 12 12 15 17 19 21 23 25 25 27 29 31 32 32 32 33 34 34 33 34 35
35 31 27 25 23 21 19 17 15 14 13 9 7 6 6 7 7 4 6 6 8 9 11 15 18 21 22 25 29 30 31 34 36 37 37 38 39 38 38 37 36 35 35
34 31 29 28 26 24 21 18 16 14 11 10 11 5 4 3 4 5 5 4 10 11 11 14 19 24 28 33 32 31 34 36 37 38 39 40 40 41 41 38 38 39 40
34 31 30 28 25 22 20 18 16 13 12 11 15 10 7 2 3 2 1 1 4 10 18 20 24 25 26 28 30 32 31 33 34 35 37 37 38 38 39 40 42 42 42
35 33 31 28 25 22 20 18 16 14 12 11 12 13 5 4 5 1 3 2 11 12 17 20 24 25 28 29 30 36 38 37 35 37 39 41 41 40 39 40 42 45 46
36 34 30 27 24 22 20 18 16 14 14 13 11 11 10 9 4 5 9 7 14 13 17 19 21 24 27 28 36 35 34 39 45 50 54 54 51 47 45 45 46 47 50
37 34 29 26 24 22 19 17 16 15 15 13 12 11 15 13 10 8 3 7 17 14 21 28 21 21 22 28 31 36 43 48 52 54 54 54 50 46 45 46 48 49 51
40 34 30 26 24 22 21 20 19 16 17 17 14 16 15 9 9 9 7 16 21 18 28 24 21 20 31 27 31 48 54 57 57 56 57 58 58 59 59 58 55 53 53
41 35 31 28 26 24 23 21 20 20 20 20 13 17 12 10 11 13 15 17 27 35 22 17 22 33 34 38 48 61 62 65 65 65 59 59 60 63 65 66 63 59 56
40 37 34 29 26 25 23 24 25 24 22 17 12 12 9 12 15 17 19 24 31 25 33 26 35 28 28 54 64 63 68 63 62 69 69 66 62 59 60 64 66 60 57
42 38 33 30 27 25 27 27 27 24 19 13 9 10 12 15 18 22 24 25 23 18 36 37 32 50 59 63 65 70 70 68 70 58 54 53 53 56 58 58 56 56 57
40 38 34 30 29 29 29 28 24 19 14 11 8 13 15 19 23 25 25 27 26 27 28 44 51 55 58 64 65 65 72 71 61 49 54 52 58 60 59 57 58 59 59
40 37 35 32 32 32 28 25 19 13 10 9 13 13 19 21 24 26 29 31 33 34 41 52 50 53 56 54 57 65 56 58 56 55 54 58 61 59 57 58 58 57 56
40 36 35 34 36 31 26 19 13 9 8 12 13 18 22 25 27 30 34 35 36 37 41 50 52 48 56 60 51 52 51 48 49 53 53 56 56 57 57 58 55 54 57
41 39 38 37 33 28 21 13 8 7 11 12 17 22 24 28 30 34 36 37 38 40 42 42 55 58 56 50 52 49 48 50 58 59 49 53 51 52 59 56 58 60 59
40 42 38 34 30 22 15 9 8 10 13 16 20 24 29 32 36 38 40 40 38 40 40 44 54 58 51 55 48 53 56 67 67 65 68 67 54 58 60 56 52 52 52
40 42 37 31 23 15 10 7 9 13 15 20 25 30 34 37 39 42 43 41 40 39 37 40 48 54 53 51 51 55 60 69 72 71 76 56 63 67 66 59 49 46 50
43 38 30 22 15 10 8 9 11 14 19 23 27 31 35 39 43 44 42 38 35 39 40 42 50 53 52 54 56 59 68 77 77 67 56 70 63 69 62 64 51 51 52
39 31 23 16 11 7 7 9 14 18 23 28 31 33 37 39 42 39 35 30 29 29 35 43 52 53 62 59 64 78 73 68 71 68 61 66 65 66 62 58 54 51 44
34 25 18 12 6 6 8 13 17 22 26 29 34 38 39 37 34 38 38 34 37 39 37 46 60 60 60 61 64 67 61 60 61 59 49 63 63 61 60 57 42 36 38
30 22 15 8 4 6 11 17 23 25 28 32 37 38 38 36 34 41 37 38 43 43 43 49 50 54 53 53 48 49 54 58 67 67 59 53 63 74 65 57 41 34 57
22 18 11 6 5 10 16 20 24 29 33 35 37 35 31 35 42 41 37 42 48 51 53 56 54 48 44 42 35 41 53 59 63 69 56 61 64 64 66 45 49 70 61
Wind_Direction_850mb
191 179 176 170 172 162 160 157 145 144 137 145 127 129 125 122 139 148 223 211 230 248 272 285 300 309 308 309 320 329 331 329 327 325 323 322 319 314 309 305 301 300 300
191 181 180 177 174 163 160 151 152 157 157 137 156 150 151 137 142 148 177 209 240 256 271 287 300 304 305 308 314 320 324 326 325 322 320 319 317 314 311 307 304 301 295
188 187 181 177 177 167 160 169 166 160 168 163 165 159 141 132 116 123 155 199 251 264 286 298 304 308 311 313 316 319 321 323 323 322 320 317 316 314 311 308 304 301 297
186 184 183 181 179 173 165 161 159 161 155 151 140 170 136 139 156 161 170 206 257 289 300 306 311 316 322 326 326 326 325 326 325 324 321 318 316 314 311 307 305 303 299
180 181 182 178 176 173 171 171 167 163 167 172 165 176 167 171 194 196 231 255 285 299 313 329 326 325 325 324 322 319 316 315 314 314 314 313 312 311 310 308 303 299 298
178 178 176 173 171 171 171 166 163 166 168 172 163 168 182 182 204 187 250 283 294 315 313 319 325 327 324 323 321 318 313 311 309 307 306 306 305 306 305 304 302 301 299
178 173 171 169 169 168 166 164 161 160 154 155 132 128 122 132 189 228 249 255 304 318 323 333 330 324 321 322 317 317 313 310 308 306 305 304 302 301 301 301 300 300 297
174 169 168 166 164 161 160 159 158 149 139 157 161 174 137 84 332 227 231 286 338 350 337 334 328 327 327 324 322 319 319 314 310 306 305 306 307 307 304 300 299 297 295
170 165 162 162 161 158 157 153 151 149 141 131 155 158 165 151 192 333 352 47 342 352 317 329 335 329 325 322 318 315 313 310 307 304 302 302 302 305 303 300 297 293 290
166 162 160 158 158 154 152 148 145 144 138 129 119 128 146 157 156 171 347 1 343 333 325 320 323 323 320 319 315 310 311 308 307 307 307 306 304 304 303 297 292 290 289
163 160 157 156 154 149 148 145 138 137 129 128 125 119 103 103 83 113 113 267 315 292 314 320 316 318 308 318 314 309 310 313 310 309 308 307 307 309 306 299 293 287 284
160 159 156 154 150 147 144 136 131 129 120 114 113 102 88 89 49 42 346 304 316 316 316 325 323 308 316 316 312 315 318 316 314 312 310 308 307 303 300 298 297 295 291
160 158 153 151 146 142 138 133 129 123 118 111 107 88 74 44 13 357 340 320 315 325 326 331 313 315 317 314 311 313 318 319 317 313 311 304 300 297 296 296 295 294 293
158 154 150 148 143 142 139 132 126 122 114 107 91 63 37 9 349 339 333 327 327 321 319 309 318 320 302 304 311 311 314 316 311 314 313 312 307 298 291 289 290 295 295
156 151 148 146 144 142 138 131 127 119 110 98 62 33 358 348 336 335 337 333 324 312 311 319 317 307 309 312 313 315 314 315 314 317 315 313 312 313 311 307 304 300 296
155 150 145 144 145 140 136 129 122 120 105 68 16 2 346 346 339 336 333 329 320 303 285 304 311 309 310 309 312 310 313 314 319 319 317 315 314 313 310 306 304 300 300
149 146 143 144 144 137 135 131 122 105 72 31 358 345 352 345 336 329 329 328 321 312 301 308 309 308 310 313 306 312 324 331 328 321 317 313 314 315 312 308 306 304 300
144 144 141 147 145 138 135 125 118 76 38 3 354 350 346 341 335 330 329 326 320 318 308 306 313 314 307 316 331 329 319 318 312 309 311 313 312 311 309 309 307 303 301
147 145 143 147 141 140 133 123 91 44 17 357 349 347 341 336 331 328 327 323 319 312 313 306 306 318 331 334 320 318 317 305 304 315 313 314 309 310 309 309 304 303 299
148 145 145 145 146 134 123 100 54 16 2 351 348 342 337 333 329 326 326 323 318 315 311 316 319 324 321 323 318 315 314 312 321 319 314 315 306 309 310 312 310 306 305
145 146 149 147 135 127 106 70 26 10 355 346 343 341 334 333 328 328 327 323 317 314 315 317 313 313 317 319 318 316 312 314 312 313 316 315 306 311 310 312 311 310 306
143 143 148 140 128 122 78 30 12 353 347 344 342 340 335 333 330 324 321 319 329 326 319 314 309 309 311 312 316 316 311 315 314 317 311 311 312 309 312 314 312 307 306
143 145 141 136 123 82 44 15 359 351 344 341 342 339 336 327 322 319 321 321 315 304 304 304 303 304 307 312 308 309 314 312 310 315 319 311 315 313 315 314 311 307 310
144 143 139 128 97 47 16 1 352 347 344 342 339 335 327 321 317 316 320 317 303 314 307 298 299 307 311 311 307 307 310 313 314 320 323 313 321 321 324 326 330 319 310
147 141 136 119 70 19 3 354 346 344 345 341 334 326 323 325 321 324 320 315 314 308 302 301 302 302 302 302 305 313 313 313 312 314 318 316 315 319 322 325 323 313 321
142 138 129 106 30 358 351 347 346 344 339 331 325 324 320 318 317 319 315 310 306 311 307 310 310 310 305 311 313 304 306 308 307 309 316 315 314 319 319 316 304 320 328